AUA711Z LGAV-LDSP

Flight info

Callsign AUA711Z
Flight time N/A
Altitude 36000
Route KOR1N/21L KOR UL53 ELVAS DCT VJOSA DCT LIMJA DCT PAPIZ DCT CRAYE DCT GISAM DCT RILIM DCT UMSON DCT LOS DCT RASUG DCT BRENO DCT KONIN M726 MAH/N0463F370 Y161 MANAL M736 TULSI TULSI3A
Aircraft B738/M-SDE2E3FGHIRWXY/LB1

Departure

Time N/A
Airport Athens Eleftherios Venizelos International Airport (LGAV)

Arrival

Time 2026-04-29 18:57
Airport Split Saint Jerome Airport (LDSP)
Time Latitude Longitude Altitude Speed Heading
2026-04-29 18:37 42.57381 16.92564 35992 ft 415 kts 314°
2026-04-29 18:37 42.59475 16.89858 35591 ft 422 kts 313°
2026-04-29 18:37 42.61607 16.87100 34870 ft 424 kts 313°
2026-04-29 18:37 42.63749 16.84328 34145 ft 426 kts 313°
2026-04-29 18:38 42.65881 16.81567 33344 ft 427 kts 314°
2026-04-29 18:38 42.68043 16.78840 32545 ft 428 kts 315°
2026-04-29 18:38 42.70287 16.76117 31738 ft 430 kts 316°
2026-04-29 18:38 42.72532 16.73447 30939 ft 430 kts 316°
2026-04-29 18:39 42.74759 16.70812 30151 ft 430 kts 316°
2026-04-29 18:39 42.77024 16.68133 29361 ft 430 kts 316°
2026-04-29 18:39 42.79277 16.65469 28566 ft 430 kts 316°
2026-04-29 18:39 42.81528 16.62852 27783 ft 430 kts 317°
2026-04-29 18:40 42.83832 16.60268 26969 ft 427 kts 319°
2026-04-29 18:40 42.86083 16.57795 26202 ft 413 kts 319°
2026-04-29 18:40 42.88281 16.55403 25419 ft 402 kts 319°
2026-04-29 18:40 42.90453 16.53046 24629 ft 392 kts 319°
2026-04-29 18:41 42.96581 16.46388 22332 ft 366 kts 319°
2026-04-29 18:41 42.98555 16.44232 21565 ft 360 kts 319°
2026-04-29 18:42 43.00477 16.42123 20807 ft 353 kts 319°
2026-04-29 18:42 43.02356 16.40059 20004 ft 347 kts 319°
2026-04-29 18:42 43.04229 16.37994 19234 ft 342 kts 319°
2026-04-29 18:42 43.06052 16.35977 18506 ft 337 kts 319°
2026-04-29 18:43 43.07842 16.33989 17763 ft 332 kts 319°
2026-04-29 18:43 43.09557 16.31963 17053 ft 327 kts 313°
2026-04-29 18:43 43.11043 16.29658 16317 ft 324 kts 307°
2026-04-29 18:43 43.12405 16.27222 15517 ft 322 kts 305°
2026-04-29 18:44 43.13713 16.24776 14783 ft 321 kts 304°
2026-04-29 18:44 43.15012 16.22318 14083 ft 319 kts 304°
2026-04-29 18:44 43.16316 16.19843 13337 ft 318 kts 304°
2026-04-29 18:44 43.17583 16.17434 12595 ft 316 kts 304°
2026-04-29 18:45 43.18863 16.14994 11838 ft 315 kts 304°
2026-04-29 18:45 43.20127 16.12570 11150 ft 312 kts 304°
2026-04-29 18:45 43.21368 16.10182 10654 ft 303 kts 304°
2026-04-29 18:45 43.22560 16.07887 10209 ft 294 kts 304°
2026-04-29 18:46 43.23718 16.05659 9892 ft 281 kts 304°
2026-04-29 18:46 43.24834 16.03513 9507 ft 273 kts 304°
2026-04-29 18:46 43.25921 16.01422 9037 ft 270 kts 304°
2026-04-29 18:46 43.27010 15.99323 8473 ft 268 kts 304°
2026-04-29 18:47 43.28077 15.97266 7979 ft 264 kts 304°
2026-04-29 18:47 43.29131 15.95239 7465 ft 261 kts 304°
2026-04-29 18:47 43.30178 15.93222 6990 ft 258 kts 304°
2026-04-29 18:47 43.31210 15.91241 6497 ft 256 kts 304°
2026-04-29 18:48 43.32231 15.89277 6140 ft 248 kts 305°
2026-04-29 18:48 43.33204 15.87396 5882 ft 238 kts 305°
2026-04-29 18:48 43.34142 15.85570 5579 ft 232 kts 305°
2026-04-29 18:48 43.35111 15.83777 5246 ft 232 kts 315°
2026-04-29 18:49 43.36475 15.82747 5038 ft 227 kts 352°
2026-04-29 18:49 43.38010 15.83102 4732 ft 230 kts 32°
2026-04-29 18:49 43.39028 15.84746 4500 ft 227 kts 71°
2026-04-29 18:49 43.39326 15.86860 4317 ft 226 kts 83°
2026-04-29 18:50 43.39460 15.88976 4073 ft 222 kts 85°
2026-04-29 18:50 43.39578 15.91065 3913 ft 214 kts 85°
2026-04-29 18:50 43.39688 15.93022 3921 ft 198 kts 85°
2026-04-29 18:50 43.39791 15.94858 3925 ft 191 kts 85°
2026-04-29 18:51 43.39894 15.96722 3927 ft 198 kts 84°
2026-04-29 18:51 43.39999 15.98619 3924 ft 197 kts 85°
2026-04-29 18:51 43.40104 16.00487 3932 ft 199 kts 85°
2026-04-29 18:51 43.40212 16.02393 3774 ft 198 kts 84°
2026-04-29 18:52 43.40334 16.04229 3607 ft 190 kts 79°
2026-04-29 18:52 43.40712 16.05925 3425 ft 185 kts 62°
2026-04-29 18:52 43.41384 16.07412 3255 ft 183 kts 54°
2026-04-29 18:52 43.42141 16.08825 3080 ft 182 kts 53°
2026-04-29 18:53 43.42910 16.10206 2967 ft 180 kts 52°
2026-04-29 18:53 43.43671 16.11561 2976 ft 183 kts 52°
2026-04-29 18:53 43.44460 16.12964 2880 ft 183 kts 52°
2026-04-29 18:53 43.45226 16.14327 2626 ft 180 kts 52°
2026-04-29 18:54 43.45980 16.15671 2387 ft 177 kts 52°
2026-04-29 18:54 43.46727 16.17001 2146 ft 173 kts 52°
2026-04-29 18:54 43.47445 16.18279 1928 ft 164 kts 52°
2026-04-29 18:54 43.48118 16.19480 1722 ft 149 kts 53°
2026-04-29 18:55 43.48732 16.20575 1507 ft 142 kts 53°
2026-04-29 18:55 43.49339 16.21659 1310 ft 143 kts 53°
2026-04-29 18:55 43.49945 16.22741 1126 ft 145 kts 53°
2026-04-29 18:55 43.50562 16.23844 931 ft 145 kts 53°
2026-04-29 18:56 43.51180 16.24957 702 ft 148 kts 53°
2026-04-29 18:56 43.51803 16.26092 510 ft 148 kts 52°
2026-04-29 18:56 43.52439 16.27200 312 ft 150 kts 52°
2026-04-29 18:56 43.53074 16.28340 130 ft 149 kts 51°
2026-04-29 18:57 43.53718 16.29479 76 ft 144 kts 52°
2026-04-29 18:57 43.54211 16.30362 61 ft 85 kts 46°
2026-04-29 18:57 43.54494 16.30872 57 ft 54 kts 53°
2026-04-29 18:57 43.54585 16.31078 62 ft 6 kts 185°
2026-04-29 18:58 43.54559 16.31024 60 ft 6 kts 251°
2026-04-29 18:58 43.54522 16.30924 58 ft 22 kts 236°
2026-04-29 18:58 43.54395 16.30693 55 ft 32 kts 232°
2026-04-29 18:58 43.54263 16.30454 59 ft 30 kts 233°
2026-04-29 18:59 43.54140 16.30239 64 ft 26 kts 232°
2026-04-29 18:59 43.54008 16.30096 68 ft 16 kts 195°
2026-04-29 18:59 43.53941 16.30071 68 ft 8 kts 195°
2026-04-29 18:59 43.53913 16.30060 68 ft 2 kts 196°
2026-04-29 19:00 43.53893 16.30050 68 ft 4 kts 208°
2026-04-29 19:00 43.53870 16.30020 68 ft 4 kts 231°
2026-04-29 19:00 43.53854 16.29992 68 ft 3 kts 231°
2026-04-29 19:00 43.53844 16.29986 68 ft 1 kts 147°
2026-04-29 19:01 43.53834 16.30001 68 ft 2 kts 125°
2026-04-29 19:01 43.53827 16.30019 68 ft 1 kts 115°
2026-04-29 19:01 43.53825 16.30027 68 ft 0 kts 112°
2026-04-29 19:01 43.53824 16.30031 68 ft 0 kts 112°
2026-04-29 19:02 43.53823 16.30033 68 ft 0 kts 112°